THORAD AGENA D DEB, 4979

Orbit data source: Space-Track

THORAD AGENA D DEB, 4979 is space debris in SSO originally from a launch on Wed, 08 Apr 1970 UTC launched from the Air Force Western Test Range (AFWTR). Debris objects in space refer to the collection of defunct objects orbiting the Earth. Examples of debris include non-operational satellites, rocket bodies, and fragments generated from explosions, collisions, or faulty payload assembly.

Loading next visibility...
Identifier
4979, 1970-025GZ
Orbit
SSO
Country
Flag of USUS
Related business
Manufacturer
Unknown
Mission
Spacecraft
Bus & Motor
Unknown
Mass
Unknown
Launch date (UTC)
1970-04-08 (56 years ago)
Launch vehicle
Unknown
Launch site
Air Force Western Test Range (AFWTR)
Object type
Payload
Rocket body
Debris
Shape & HBR
Unknown shape, 0.1 m
Radar Cross Section
Small (<0.1 m²)

Expand to show TLE details & history
Last TLE update: 8 hours ago

TLE from 8 hours ago
0 THORAD AGENA D DEB
1 04979U 70025GZ  25353.16260343  .00000119  00000-0  22325-3 0  9994
2 04979 100.0699 226.4581 0012174 213.5210 298.9653 13.59928180757572
Epoch: 2025-12-19T03:54Z
TLE epoch observation values (Epoch: 2025-12-19T03:54:08.936Z)
Latitude
27.21403°
Longitude
-94.87434°
Altitude
1,034.802 km
Speed
7.339 km/s
True Right ascension
03h 26m 40s
True Declination
27° 04' 47"
Sunlit
Object was in full shadow at epoch
Visualization orbit readout
Latitude
Unknown
Longitude
Unknown
Altitude
Unknown
Speed
Unknown
Apparent Right ascension
Unknown
Apparent Declination
Unknown
Sunlit
N/A
Visualization observer readout
Local Sidereal Time
10:58:19
Azimuth
Unknown
Elevation
Unknown
Doppler factor
Unknown
Orbital elements
Apogee altitude
1,042.283 km
Perigee altitude
1,024.238 km
Semi-major axis
7,411.398 km
Eccentricity
0.00122
Inclination
100.0699°
RAAN
226.4581°
Arg. of periapsis
213.521°
True anomaly
298.84316°
Mean anomaly
298.9653°
Eccentric anomaly
298.90424°
Mean motion
3.40168 °/min
Orbital period
105.83 mins
BSTAR
0.00022325

Documentation

Showing up to 5 results
|